Temperature
20 20 20 20 20 20 21 21 21 20 20 20 20 20 20 19 19 19 19 19 19 19 19 19 19 19 19 18 18 18 18 18 18 18 18 18 17 17 17 17 17 17 17
21 20 20 20 20 20 21 21 21 21 20 20 20 20 20 20 19 19 19 19 19 19 19 19 19 19 19 19 19 19 19 18 18 18 17 17 17 17 17 17 17 17 17
21 20 20 20 20 20 20 21 21 21 20 20 20 20 20 20 19 19 19 19 19 19 19 19 19 19 19 19 19 19 18 18 18 18 17 17 17 17 17 17 17 17 17
21 21 20 20 20 20 20 20 20 20 20 20 20 20 20 20 19 19 19 19 19 19 19 19 19 19 19 19 18 18 18 18 18 18 17 17 17 17 17 17 17 17 18
21 21 20 20 20 20 20 20 20 20 20 20 20 20 20 20 19 19 19 19 19 19 19 19 19 19 19 19 18 18 18 18 18 18 17 17 17 17 17 18 18 18 18
21 21 20 20 20 20 20 20 20 20 20 20 20 20 20 19 19 19 19 19 19 19 19 19 19 19 19 19 18 18 18 18 18 18 17 17 17 17 17 18 18 18 18
21 21 20 20 20 20 20 20 20 20 20 20 19 19 19 19 19 19 19 19 19 19 19 19 19 19 19 18 18 18 18 17 17 17 17 17 17 17 17 17 18 18 18
21 21 20 20 20 20 20 20 20 20 19 19 19 19 19 19 19 19 19 19 19 19 19 19 19 19 19 18 18 18 18 17 17 17 18 17 17 17 17 17 18 18 18
21 21 20 20 20 20 20 20 20 20 19 19 19 19 19 19 19 19 19 19 19 19 19 19 19 19 19 19 18 18 18 18 18 18 18 18 17 17 17 17 18 18 18
20 20 20 20 20 20 20 20 20 19 19 19 19 19 19 18 18 18 18 18 18 18 18 19 19 19 19 19 18 18 18 18 18 18 18 18 18 17 17 17 17 17 18
20 20 20 20 20 20 20 19 19 19 19 19 19 18 18 18 18 18 18 18 18 18 18 18 18 18 19 18 18 18 18 18 18 18 18 18 18 17 17 17 17 17 17
20 20 20 20 20 20 19 19 19 19 19 19 19 18 18 18 18 18 18 18 18 18 18 18 18 18 18 18 18 18 18 18 18 18 18 18 18 18 17 17 17 17 17
21 20 20 20 20 19 19 19 19 19 19 19 19 18 18 18 18 18 18 18 18 18 18 18 18 18 18 18 18 18 18 18 18 18 18 18 18 18 18 18 17 17 17
20 20 20 20 19 19 19 19 18 18 18 18 18 18 18 18 18 18 18 18 17 17 17 17 17 17 17 17 17 17 17 18 18 18 18 18 18 18 18 18 18 17 17
20 20 19 19 19 19 18 18 18 18 18 18 18 18 18 18 17 18 17 17 17 17 17 17 17 17 17 17 17 17 17 17 17 17 18 18 18 18 18 18 18 18 17
19 19 19 19 19 18 18 18 18 18 18 18 17 17 17 17 17 17 17 17 17 17 17 17 17 17 17 17 17 17 17 17 17 17 17 17 17 17 17 17 17 18 18
19 19 19 19 18 18 18 18 17 17 17 17 17 17 17 17 17 17 16 16 17 17 17 17 16 16 16 16 16 16 16 16 17 17 17 17 17 17 17 17 17 17 18
19 19 18 18 18 18 18 17 17 17 17 17 17 16 16 16 16 16 16 16 16 16 16 16 16 16 16 16 16 16 16 16 16 16 16 17 17 17 17 17 17 17 17
19 19 18 18 18 18 17 17 17 17 17 16 16 16 16 16 16 16 16 16 16 16 16 16 16 15 15 15 15 16 16 16 16 16 16 16 17 17 17 17 17 17 17
19 18 18 18 18 18 17 17 17 17 17 16 16 16 16 16 16 15 15 15 15 15 15 15 15 15 15 15 15 15 15 15 15 16 16 16 16 17 17 17 17 17 17
19 19 18 18 18 18 17 17 17 17 16 16 16 16 15 15 15 15 15 15 14 14 14 14 14 14 14 14 14 15 15 15 16 16 16 16 16 16 16 17 17 17 17
19 19 18 18 18 18 17 17 17 16 16 16 15 15 15 14 14 14 14 14 14 14 14 14 14 14 14 13 13 13 14 15 15 15 16 16 16 16 16 16 16 16 17
19 18 18 18 18 17 17 16 16 16 15 15 15 14 14 14 13 13 13 13 13 13 13 13 13 13 13 13 13 13 13 13 13 14 15 15 15 15 16 16 16 16 16
19 18 18 17 17 17 16 16 15 15 15 14 14 14 13 13 13 12 12 12 12 12 13 13 13 13 13 13 13 13 12 12 12 13 14 14 14 15 15 15 15 16 16
18 18 17 17 17 16 16 15 15 14 14 13 13 13 12 12 12 12 12 12 12 12 12 12 12 12 12 12 12 12 12 12 12 12 13 14 14 15 15 15 15 16 16
18 18 17 17 16 16 15 15 14 14 13 13 12 12 12 12 11 11 11 11 11 11 11 11 12 12 12 12 12 12 12 12 12 12 12 13 13 14 15 15 15 15 16
Wind_Speed
8 11 19 20 20 20 21 21 21 21 21 21 20 20 20 19 18 17 16 14 12 11 10 9 9 9 9 10 11 12 12 13 13 13 13 13 14 14 15 16 16 15 18
12 15 20 20 20 20 21 21 20 20 20 20 19 19 18 18 17 16 15 13 12 11 10 9 9 9 9 9 10 11 12 12 12 12 12 12 13 14 15 15 15 14 17
14 15 19 20 20 20 20 20 20 19 19 19 18 18 17 17 16 15 14 13 12 11 10 9 8 8 8 9 9 10 11 11 11 11 10 9 11 13 14 15 15 16 16
13 14 17 19 19 19 19 19 19 19 18 18 17 17 16 15 15 14 13 12 11 10 9 9 8 8 8 8 8 9 9 9 9 9 7 7 8 12 13 14 15 15 15
11 13 17 20 19 18 18 18 18 17 17 16 16 15 15 14 13 13 12 11 10 10 9 8 8 8 8 8 7 8 8 8 8 7 5 5 6 12 13 14 14 15 15
11 12 17 19 18 18 17 17 17 16 15 15 14 14 14 13 12 11 11 10 9 9 8 8 7 7 7 7 7 7 7 7 6 5 4 4 7 11 13 14 14 14 15
11 10 15 18 17 17 16 16 15 15 14 14 13 13 12 12 11 10 10 9 9 9 8 8 7 7 7 7 7 6 6 6 5 4 4 5 7 11 13 14 14 14 14
12 9 13 17 17 16 15 15 14 14 13 13 12 12 12 12 11 10 10 9 9 9 8 8 8 8 7 7 7 6 6 6 4 4 5 7 10 12 13 14 14 15 15
8 7 8 12 14 15 14 14 13 13 13 12 12 12 12 12 11 11 10 10 10 10 9 9 9 9 9 8 8 7 7 7 4 3 5 7 11 14 14 15 15 15 15
7 6 5 7 9 10 11 12 12 12 12 12 12 12 12 11 11 11 11 11 11 11 11 11 11 11 11 10 10 9 9 8 6 5 5 7 11 14 16 16 17 17 16
8 5 5 5 5 6 7 9 10 10 10 10 10 11 11 9 9 9 10 12 12 12 12 13 13 13 12 12 12 12 10 8 7 6 7 9 12 15 17 18 19 19 18
9 7 4 4 4 4 4 5 5 6 7 7 6 7 7 7 7 9 9 12 13 13 13 14 14 14 13 11 12 12 9 9 9 8 9 12 13 15 17 19 20 21 20
7 7 5 3 3 3 2 2 3 4 4 5 6 6 6 5 6 7 6 8 9 10 10 11 12 12 11 10 9 10 10 10 9 10 11 14 15 17 18 20 22 22 22
6 5 5 5 3 3 3 2 3 3 3 5 7 7 6 4 4 4 4 5 5 6 6 7 8 10 11 12 11 11 12 11 11 10 12 16 17 18 19 20 22 24 24
6 5 4 5 4 3 2 1 1 1 3 3 4 6 7 4 4 3 4 5 5 5 5 4 5 6 6 8 10 11 11 12 13 12 12 16 18 19 19 20 22 24 25
6 5 4 5 4 3 2 1 0 1 0 1 2 3 5 5 3 2 3 3 3 4 4 3 4 4 4 4 7 9 10 11 12 13 13 15 18 19 20 21 22 24 25
5 5 5 5 5 4 3 2 1 1 1 1 1 1 2 2 2 2 2 2 3 4 3 2 3 3 4 5 7 8 8 10 11 13 14 14 15 17 20 21 21 22 23
6 5 4 5 5 4 3 2 2 2 1 1 1 1 1 0 1 1 1 2 2 2 2 2 2 2 4 5 6 7 7 7 10 12 13 14 14 15 17 21 22 23 23
5 6 5 5 5 4 3 2 2 2 2 2 2 2 2 1 0 1 1 2 2 1 2 2 1 2 4 5 6 7 7 8 9 10 11 13 16 16 16 18 21 22 24
5 5 5 5 4 4 3 2 2 2 2 2 2 2 2 2 2 1 1 2 1 1 2 2 3 2 3 4 6 7 7 8 8 9 11 11 14 17 17 17 17 18 22
4 4 4 4 4 3 2 2 2 1 1 1 2 3 3 3 3 2 1 2 1 2 3 3 2 2 3 2 3 5 6 8 9 9 9 9 11 14 16 17 16 16 15
4 4 4 4 3 2 2 1 1 1 0 0 1 3 3 4 4 3 2 2 2 2 3 3 2 2 2 1 2 3 4 4 3 6 6 7 9 8 11 15 15 15 15
5 5 4 4 3 2 2 2 2 2 2 2 2 2 3 4 5 4 3 3 3 3 3 4 3 4 3 2 3 3 2 3 4 3 4 5 6 7 9 9 13 15 17
6 4 4 4 3 2 2 2 2 1 1 3 2 2 4 5 5 5 4 4 4 3 4 4 3 4 4 4 3 4 5 4 3 4 3 3 5 7 8 9 10 12 16
4 5 5 4 3 2 2 2 2 2 3 2 2 4 5 5 5 5 5 4 4 3 4 4 3 4 4 4 4 3 3 3 5 5 6 5 4 5 6 7 7 7 12
3 4 4 4 3 2 2 1 2 4 4 4 5 5 5 4 4 5 5 4 4 4 4 4 4 4 4 5 4 4 3 3 3 4 5 6 6 5 5 5 6 6 8
Wind_Direction
151 156 152 148 142 135 129 125 124 123 123 124 127 132 137 141 144 146 147 147 145 142 135 126 117 111 109 109 111 112 113 116 120 119 121 122 122 122 122 121 118 118 119
145 154 153 149 144 138 133 130 128 127 127 128 130 134 138 141 144 147 149 149 148 145 139 131 124 120 118 117 117 119 120 123 125 125 126 126 127 127 126 124 123 126 124
142 151 152 150 145 140 136 134 133 132 133 134 136 138 141 144 147 149 151 152 151 149 144 137 132 129 127 126 125 126 128 130 129 125 119 122 131 132 131 129 130 130 128
141 146 151 150 147 144 140 138 137 137 138 139 142 144 146 148 150 153 155 155 155 153 149 146 142 140 137 135 135 134 134 133 130 121 113 123 136 140 139 137 136 134 133
136 142 153 153 151 148 145 142 141 141 142 145 147 150 152 153 156 159 160 161 161 159 156 156 154 151 148 147 145 144 143 142 135 121 118 122 138 149 147 145 144 141 140
134 143 156 155 155 153 150 148 146 147 149 152 155 157 159 161 164 166 168 170 168 167 167 166 166 163 162 161 161 160 158 159 139 126 136 139 148 158 157 155 152 149 147
136 143 156 156 157 157 156 154 154 155 157 161 164 167 169 172 175 177 178 182 183 180 180 179 179 178 179 179 180 181 184 185 153 152 166 173 174 172 168 166 162 158 156
140 140 153 158 160 162 163 163 163 165 167 171 176 179 183 185 187 189 191 196 200 198 196 195 193 193 195 196 198 201 205 210 195 186 188 189 192 188 183 178 173 168 166
129 129 140 155 162 166 169 171 173 175 178 181 186 190 195 199 199 201 203 208 212 211 209 209 208 208 208 210 213 217 221 225 210 200 207 199 202 200 195 190 184 180 177
123 121 120 134 148 160 172 179 181 185 187 191 195 200 205 209 210 211 212 216 221 220 217 220 221 220 219 220 222 226 229 233 226 221 222 215 212 209 205 200 194 190 186
147 129 123 124 130 147 169 188 190 194 199 203 208 212 214 218 221 225 225 226 231 231 229 231 232 231 231 230 229 230 233 228 222 227 227 227 223 219 214 208 202 198 195
167 160 140 130 126 142 180 193 195 201 205 208 215 227 225 223 228 234 239 242 242 241 241 241 241 239 239 236 236 237 235 227 224 229 232 234 231 228 223 215 208 204 202
160 163 155 140 135 155 191 190 200 210 213 212 215 222 228 231 238 244 246 257 261 259 254 251 250 244 236 232 232 235 237 236 235 236 236 236 233 231 228 222 215 209 207
146 160 156 152 156 188 221 222 208 217 222 222 221 220 217 222 229 238 244 251 256 261 259 253 246 245 241 239 237 238 240 239 238 237 239 242 238 234 230 227 220 216 211
137 141 143 149 163 179 211 268 233 245 250 255 244 231 223 217 223 223 240 248 254 259 256 255 253 251 250 247 244 243 244 240 239 234 237 244 241 235 233 232 228 221 216
115 118 120 122 133 128 131 125 155 197 178 320 285 250 235 226 223 220 238 246 251 255 253 250 256 257 256 254 253 250 248 247 246 240 238 243 243 239 235 233 232 226 221
108 108 112 118 112 115 122 136 116 72 83 102 248 257 236 218 205 203 227 245 251 255 263 270 275 272 271 265 262 261 256 249 248 242 242 242 243 242 238 234 233 228 223
116 114 117 123 117 116 117 110 96 84 74 72 89 47 18 243 199 193 227 249 262 270 268 265 265 275 271 269 267 265 259 254 252 248 245 244 242 243 239 235 232 228 226
131 129 127 125 131 131 124 119 107 89 65 42 58 55 33 18 268 214 250 265 277 279 278 278 256 248 268 274 271 265 258 254 251 251 246 243 241 239 237 236 232 228 227
141 138 138 137 139 129 114 100 74 62 46 47 48 43 41 22 10 351 279 290 299 289 285 280 273 257 260 273 284 280 267 257 250 245 245 243 240 239 236 234 232 231 230
149 148 153 152 153 138 122 120 104 68 26 27 27 36 31 17 4 348 318 313 301 272 269 269 265 276 275 275 291 294 282 260 250 246 242 240 240 239 236 231 228 226 228
186 183 176 177 171 166 147 138 137 128 53 347 350 8 12 2 348 337 320 300 291 281 283 270 240 252 268 250 250 301 310 312 289 254 243 240 242 240 238 234 228 225 225
207 204 191 189 184 173 145 108 76 52 20 358 348 334 334 341 335 329 315 295 287 267 267 265 235 225 246 261 226 233 274 290 313 294 262 250 248 244 243 237 230 227 225
216 201 195 192 194 189 160 150 157 177 245 255 270 293 309 316 315 311 304 296 288 274 266 265 242 222 221 245 255 236 239 251 280 307 303 279 270 259 252 245 237 228 224
200 191 191 188 203 205 187 173 181 228 243 274 292 299 303 307 306 299 292 288 283 274 268 264 259 237 223 229 230 241 251 252 245 260 288 302 299 273 261 250 242 232 225
189 182 178 183 213 218 212 213 222 248 266 283 289 292 292 294 297 292 288 275 272 268 266 263 254 246 238 237 236 232 231 242 251 253 272 293 297 291 279 261 247 238 230
Height
1511 1514 1517 1521 1524 1526 1528 1530 1531 1533 1535 1537 1538 1540 1542 1543 1544 1545 1546 1547 1548 1549 1550 1551 1551 1552 1552 1553 1553 1554 1554 1555 1555 1556 1556 1557 1558 1559 1560 1561 1562 1563 1564
1510 1514 1518 1521 1525 1527 1529 1531 1533 1534 1536 1538 1539 1541 1542 1544 1545 1546 1547 1548 1549 1550 1551 1552 1552 1553 1553 1554 1554 1555 1555 1556 1557 1557 1558 1559 1560 1561 1562 1563 1564 1565 1566
1511 1515 1519 1522 1526 1528 1530 1532 1534 1536 1537 1539 1541 1542 1543 1545 1546 1547 1548 1549 1550 1551 1552 1553 1553 1554 1554 1555 1555 1556 1557 1557 1558 1559 1560 1561 1562 1563 1564 1565 1566 1567 1568
1512 1516 1520 1524 1527 1529 1532 1533 1535 1537 1538 1540 1541 1543 1544 1545 1547 1548 1549 1550 1551 1552 1553 1554 1554 1555 1555 1556 1557 1557 1558 1559 1560 1561 1562 1563 1564 1565 1566 1567 1568 1569 1570
1514 1518 1521 1525 1528 1531 1533 1535 1537 1538 1539 1541 1542 1543 1545 1546 1547 1548 1550 1551 1552 1553 1554 1554 1555 1556 1556 1557 1558 1559 1560 1560 1561 1562 1563 1564 1565 1566 1567 1569 1570 1571 1572
1515 1519 1523 1526 1529 1532 1534 1536 1538 1539 1541 1542 1543 1544 1545 1547 1548 1549 1550 1551 1552 1553 1554 1555 1556 1557 1557 1558 1559 1560 1561 1562 1563 1563 1564 1565 1566 1567 1569 1570 1571 1572 1574
1516 1520 1524 1527 1530 1533 1535 1537 1539 1540 1541 1543 1544 1545 1546 1547 1548 1549 1550 1551 1552 1553 1554 1555 1556 1557 1558 1559 1560 1561 1562 1563 1564 1565 1565 1566 1567 1568 1569 1571 1572 1573 1575
1517 1521 1525 1528 1531 1534 1536 1538 1539 1541 1542 1543 1544 1545 1546 1547 1548 1549 1550 1551 1552 1553 1554 1555 1556 1557 1558 1559 1560 1561 1562 1563 1564 1565 1566 1567 1567 1568 1570 1571 1572 1574 1576
1519 1522 1526 1529 1531 1534 1536 1538 1540 1541 1542 1543 1544 1545 1546 1547 1548 1549 1550 1551 1552 1553 1554 1555 1555 1556 1557 1558 1559 1560 1561 1562 1563 1565 1566 1567 1567 1568 1569 1571 1572 1574 1576
1520 1524 1527 1529 1532 1534 1536 1538 1540 1541 1542 1543 1544 1545 1546 1546 1547 1548 1549 1550 1551 1552 1552 1553 1554 1555 1556 1557 1558 1559 1560 1561 1562 1563 1565 1566 1567 1568 1569 1570 1572 1573 1575
1522 1525 1527 1530 1532 1535 1537 1538 1539 1540 1541 1542 1543 1544 1545 1545 1546 1547 1547 1548 1549 1550 1551 1551 1552 1553 1554 1555 1556 1558 1559 1559 1560 1562 1563 1564 1565 1566 1568 1569 1571 1572 1574
1522 1525 1528 1530 1533 1535 1537 1538 1539 1540 1541 1542 1542 1543 1544 1544 1545 1545 1546 1546 1547 1548 1549 1549 1550 1551 1552 1553 1554 1555 1556 1557 1558 1559 1560 1562 1563 1564 1566 1567 1569 1570 1572
1523 1526 1528 1531 1533 1534 1536 1537 1538 1539 1540 1540 1541 1542 1542 1543 1543 1543 1544 1544 1545 1546 1546 1546 1547 1548 1549 1549 1550 1551 1552 1553 1554 1555 1557 1558 1560 1561 1563 1564 1566 1568 1570
1525 1527 1529 1531 1533 1535 1536 1537 1538 1539 1539 1539 1540 1540 1540 1541 1541 1541 1542 1542 1542 1543 1543 1543 1544 1544 1545 1545 1546 1547 1548 1549 1550 1551 1552 1554 1556 1557 1559 1561 1563 1564 1567
1525 1527 1529 1531 1533 1534 1535 1536 1536 1536 1537 1537 1538 1538 1538 1538 1538 1539 1539 1539 1539 1540 1539 1539 1540 1540 1540 1541 1541 1542 1543 1544 1545 1546 1547 1549 1551 1552 1554 1556 1558 1560 1563
1525 1527 1528 1530 1532 1533 1534 1534 1534 1534 1534 1535 1535 1535 1535 1535 1536 1536 1536 1537 1536 1536 1536 1535 1535 1535 1535 1536 1536 1537 1537 1538 1538 1539 1541 1543 1545 1547 1549 1551 1553 1555 1557
1526 1527 1528 1529 1530 1532 1532 1532 1533 1532 1532 1533 1533 1533 1533 1533 1533 1533 1533 1533 1533 1532 1532 1531 1530 1530 1530 1530 1531 1531 1531 1532 1532 1533 1535 1537 1539 1540 1542 1545 1547 1549 1552
1525 1526 1527 1529 1530 1530 1531 1531 1531 1531 1531 1531 1531 1532 1531 1530 1530 1530 1530 1530 1529 1529 1528 1527 1527 1526 1526 1526 1525 1525 1525 1525 1526 1526 1527 1529 1531 1534 1536 1538 1540 1543 1546
1526 1527 1528 1529 1529 1530 1530 1531 1531 1530 1530 1530 1530 1530 1529 1529 1528 1528 1527 1527 1526 1525 1525 1524 1523 1523 1522 1521 1520 1519 1519 1519 1519 1520 1520 1522 1524 1527 1529 1531 1534 1536 1539
1526 1527 1528 1529 1529 1529 1530 1530 1530 1530 1529 1529 1528 1528 1528 1527 1526 1525 1524 1524 1523 1522 1522 1521 1520 1519 1519 1517 1516 1515 1514 1513 1513 1513 1514 1515 1517 1519 1521 1523 1526 1529 1531
1526 1527 1528 1528 1529 1529 1530 1530 1529 1529 1528 1528 1527 1526 1525 1524 1523 1522 1522 1521 1520 1519 1519 1518 1517 1516 1515 1514 1512 1510 1509 1508 1507 1507 1508 1508 1510 1512 1513 1516 1518 1521 1524
1526 1527 1527 1528 1528 1529 1529 1529 1528 1527 1526 1526 1525 1524 1523 1521 1520 1519 1518 1517 1516 1516 1515 1514 1514 1512 1512 1511 1510 1508 1505 1504 1503 1502 1502 1503 1504 1505 1507 1508 1510 1513 1516
1525 1526 1527 1527 1528 1528 1527 1527 1526 1525 1524 1523 1522 1521 1519 1518 1516 1515 1514 1513 1512 1511 1511 1511 1510 1509 1508 1509 1508 1507 1505 1502 1500 1499 1498 1498 1499 1500 1501 1502 1503 1506 1508
1525 1525 1526 1526 1526 1526 1525 1525 1524 1523 1522 1520 1519 1517 1516 1514 1513 1511 1510 1509 1508 1507 1507 1506 1506 1505 1505 1505 1505 1504 1504 1502 1500 1497 1495 1495 1495 1495 1495 1496 1497 1499 1502
1523 1524 1524 1524 1524 1524 1523 1522 1521 1520 1519 1517 1515 1514 1512 1511 1509 1508 1506 1504 1503 1502 1502 1501 1501 1501 1500 1500 1500 1500 1499 1498 1497 1496 1492 1491 1491 1490 1490 1490 1491 1493 1496
1521 1521 1522 1522 1521 1521 1520 1519 1518 1517 1515 1513 1512 1510 1508 1507 1505 1504 1502 1500 1499 1498 1497 1497 1496 1496 1496 1496 1496 1496 1496 1495 1494 1493 1490 1488 1487 1486 1485 1485 1486 1487 1490